Location: Tel Aviv
(32.0670°N, 34.7670°E)
Time: 07:06:59
(UTC+03:00)

FO-99 - Visible Passes

Search period start: 29 March 2023 00:00
Search period end: 08 April 2023 00:00
Orbit: 423 x 443 km, 97.1° (Epoch: 28 March)

Date Brightness Start Highest point End Pass type
(mag) Time Alt. Az. Time Alt. Az. Time Alt. Az.
29 Mar ? 19:44:15 10° S 19:47:36 82° WSW 19:50:58 10° NNW visible
30 Mar ? 20:38:28 10° WSW 20:39:58 13° W 20:41:31 10° WNW visible
31 Mar ? 19:56:23 10° S 19:59:38 50° W 20:02:53 10° NNW visible
02 Apr ? 20:08:18 10° SSW 20:11:19 32° W 20:14:21 10° NNW visible
03 Apr ? 19:27:37 10° SSE 19:30:50 51° ENE 19:34:05 10° N visible
04 Apr ? 20:20:01 10° SSW 20:22:38 22° W 20:25:17 10° NW visible
05 Apr ? 19:38:37 10° SSE 19:41:56 81° ENE 19:45:15 10° N visible
06 Apr ? 20:31:36 10° SW 20:33:36 15° W 20:35:37 10° WNW visible
07 Apr ? 19:49:23 10° S 19:52:40 66° W 19:55:58 10° NNW visible
